SWR2CY LSGG-EDDF

Flight info

Callsign SWR2CY
Flight time N/A
Altitude 32000
Route SOSAL1N SOSAL N871 KORED DCT BERSU DCT DITON/N0439F330 DCT LADOL/N0437F320 T163 EMPAX EMPAX5B
Aircraft A320/M-SDE2E3FGIJ1RWXY/L

Departure

Time 2026-05-07 13:36
Airport Geneva International Airport (LSGG)

Arrival

Time N/A
Airport Frankfurt Main Airport (EDDF)
Time Latitude Longitude Altitude Speed Heading
2026-05-07 12:56 46.23126 6.10705 1394 ft 0 kts 135°
2026-05-07 13:23 46.23143 6.10681 1408 ft 2 kts 137°
2026-05-07 13:23 46.23162 6.10664 1399 ft 4 kts 192°
2026-05-07 13:23 46.23176 6.10674 1398 ft 4 kts 224°
2026-05-07 13:23 46.23191 6.10696 1404 ft 3 kts 226°
2026-05-07 13:24 46.23193 6.10699 1400 ft 0 kts 225°
2026-05-07 13:27 46.23188 6.10691 1404 ft 7 kts 225°
2026-05-07 13:28 46.23112 6.10580 1403 ft 20 kts 225°
2026-05-07 13:28 46.23021 6.10447 1402 ft 17 kts 224°
2026-05-07 13:28 46.22949 6.10344 1407 ft 12 kts 231°
2026-05-07 13:28 46.22977 6.10262 1407 ft 9 kts 320°
2026-05-07 13:29 46.23005 6.10225 1404 ft 0 kts 316°
2026-05-07 13:29 46.23014 6.10212 1404 ft 8 kts 316°
2026-05-07 13:29 46.23050 6.10110 1408 ft 8 kts 234°
2026-05-07 13:30 46.23016 6.10069 1409 ft 6 kts 225°
2026-05-07 13:30 46.22986 6.10027 1407 ft 8 kts 225°
2026-05-07 13:30 46.22938 6.09958 1414 ft 12 kts 225°
2026-05-07 13:30 46.22873 6.09861 1411 ft 13 kts 225°
2026-05-07 13:31 46.22815 6.09775 1412 ft 11 kts 225°
2026-05-07 13:31 46.22768 6.09706 1413 ft 9 kts 225°
2026-05-07 13:31 46.22730 6.09651 1417 ft 7 kts 225°
2026-05-07 13:31 46.22689 6.09591 1417 ft 11 kts 225°
2026-05-07 13:32 46.22639 6.09517 1415 ft 9 kts 225°
2026-05-07 13:32 46.22597 6.09456 1416 ft 8 kts 225°
2026-05-07 13:32 46.22557 6.09369 1417 ft 13 kts 249°
2026-05-07 13:32 46.22544 6.09274 1417 ft 12 kts 271°
2026-05-07 13:33 46.22569 6.09169 1420 ft 10 kts 313°
2026-05-07 13:33 46.22608 6.09140 1418 ft 3 kts 28°
2026-05-07 13:33 46.22614 6.09149 1419 ft 0 kts 49°
2026-05-07 13:33 46.22618 6.09156 1419 ft 1 kts 46°
2026-05-07 13:35 46.22619 6.09157 1419 ft 1 kts 45°
2026-05-07 13:35 46.22719 6.09296 1422 ft 54 kts 45°
2026-05-07 13:35 46.23161 6.09949 1410 ft 124 kts 45°
2026-05-07 13:36 46.23778 6.10860 1428 ft 166 kts 47°
2026-05-07 13:36 46.24292 6.11671 1790 ft 172 kts 46°
2026-05-07 13:36 46.25133 6.12968 2484 ft 184 kts 45°
2026-05-07 13:36 46.26030 6.14293 3341 ft 184 kts 43°
2026-05-07 13:37 46.26952 6.15595 4007 ft 191 kts 43°
2026-05-07 13:37 46.27943 6.16998 4464 ft 210 kts 44°
2026-05-07 13:37 46.29029 6.18579 4844 ft 234 kts 44°
2026-05-07 13:37 46.30154 6.20226 5287 ft 257 kts 45°
2026-05-07 13:38 46.31133 6.21669 5776 ft 269 kts 45°
2026-05-07 13:38 46.32203 6.23244 6479 ft 276 kts 45°
2026-05-07 13:38 46.33262 6.24802 7164 ft 280 kts 45°
2026-05-07 13:38 46.34607 6.26787 8053 ft 285 kts 46°
2026-05-07 13:39 46.35935 6.28848 8956 ft 290 kts 52°
2026-05-07 13:39 46.36971 6.31284 9860 ft 293 kts 67°
2026-05-07 13:39 46.37644 6.34117 10511 ft 306 kts 75°
2026-05-07 13:39 46.38261 6.37190 10843 ft 330 kts 75°
2026-05-07 13:40 46.38910 6.40462 11374 ft 344 kts 75°
2026-05-07 13:40 46.39497 6.43405 12038 ft 350 kts 75°
2026-05-07 13:40 46.40174 6.46791 12809 ft 355 kts 74°
2026-05-07 13:40 46.40857 6.50206 13588 ft 360 kts 74°
2026-05-07 13:41 46.41559 6.53709 14298 ft 365 kts 74°
2026-05-07 13:41 46.42269 6.57262 14998 ft 369 kts 74°
2026-05-07 13:41 46.42790 6.59881 15509 ft 372 kts 74°
2026-05-07 13:41 46.43500 6.63455 16194 ft 376 kts 74°
2026-05-07 13:42 46.44121 6.66128 16698 ft 380 kts 68°
2026-05-07 13:42 46.45353 6.69538 17393 ft 384 kts 56°
2026-05-07 13:42 46.46561 6.71877 17898 ft 386 kts 50°
2026-05-07 13:42 46.48084 6.74559 18485 ft 389 kts 50°
2026-05-07 13:43 46.49801 6.77613 19104 ft 393 kts 50°
2026-05-07 13:43 46.51533 6.80717 19736 ft 396 kts 50°
2026-05-07 13:43 46.53241 6.83796 20349 ft 399 kts 50°
2026-05-07 13:43 46.54884 6.86763 20942 ft 402 kts 50°
2026-05-07 13:44 46.55479 6.87838 21155 ft 404 kts 50°
2026-05-07 13:44 46.57003 6.90610 21695 ft 406 kts 50°
2026-05-07 13:44 46.58784 6.93823 22318 ft 410 kts 50°
2026-05-07 13:44 46.60589 6.97059 22937 ft 413 kts 50°
2026-05-07 13:45 46.62199 6.99945 23464 ft 416 kts 50°
2026-05-07 13:45 46.64027 7.03227 23946 ft 419 kts 50°
2026-05-07 13:45 46.65816 7.06445 24400 ft 422 kts 50°
2026-05-07 13:45 46.67654 7.09758 24849 ft 425 kts 50°
2026-05-07 13:46 46.69516 7.13120 25282 ft 428 kts 50°
2026-05-07 13:46 46.71381 7.16493 25710 ft 431 kts 50°
2026-05-07 13:46 46.73269 7.19915 26136 ft 434 kts 50°
2026-05-07 13:46 46.75164 7.23359 26556 ft 437 kts 49°
2026-05-07 13:47 46.77065 7.26821 26957 ft 440 kts 49°
2026-05-07 13:47 46.78985 7.30322 27366 ft 443 kts 50°
2026-05-07 13:47 46.80890 7.33804 27779 ft 445 kts 50°
2026-05-07 13:47 46.82447 7.36650 28102 ft 447 kts 49°
2026-05-07 13:48 46.84395 7.40202 28497 ft 450 kts 49°
2026-05-07 13:48 46.85683 7.42550 28760 ft 451 kts 49°
2026-05-07 13:48 46.87532 7.45928 29111 ft 453 kts 50°
2026-05-07 13:48 46.89500 7.49539 29487 ft 455 kts 50°
2026-05-07 13:49 46.91438 7.53106 29840 ft 458 kts 50°
2026-05-07 13:49 46.93417 7.56755 30170 ft 460 kts 50°
2026-05-07 13:49 46.94975 7.59640 30388 ft 462 kts 50°
2026-05-07 13:49 46.96962 7.63324 30644 ft 464 kts 50°
2026-05-07 13:50 46.98974 7.67048 30901 ft 466 kts 50°
2026-05-07 13:50 47.00995 7.70780 31143 ft 469 kts 50°
2026-05-07 13:50 47.03027 7.74530 31376 ft 471 kts 50°
2026-05-07 13:50 47.05061 7.78294 31671 ft 471 kts 50°
2026-05-07 13:51 47.07094 7.82066 31947 ft 472 kts 50°
2026-05-07 13:51 47.11073 7.89487 32022 ft 455 kts 50°
2026-05-07 13:52 47.14670 7.96741 32022 ft 452 kts 56°
2026-05-07 13:52 47.17986 8.04504 32024 ft 451 kts 56°
2026-05-07 13:53 47.20722 8.10910 32026 ft 451 kts 56°
2026-05-07 13:53 47.24048 8.18730 32025 ft 450 kts 57°
2026-05-07 13:54 47.27360 8.26551 32026 ft 450 kts 55°
2026-05-07 13:54 47.31499 8.33344 32043 ft 444 kts 36°
2026-05-07 13:55 47.36575 8.37804 32048 ft 440 kts 22°
2026-05-07 13:55 47.41798 8.41470 32057 ft 440 kts 23°
2026-05-07 13:56 47.47316 8.45386 32053 ft 439 kts 23°
2026-05-07 13:56 47.52820 8.49305 32024 ft 439 kts 23°
2026-05-07 13:57 47.58322 8.53225 32027 ft 439 kts 23°
2026-05-07 13:57 47.63787 8.57119 32028 ft 438 kts 23°
2026-05-07 13:58 47.69325 8.61073 32032 ft 438 kts 24°
2026-05-07 13:58 47.74412 8.64725 32032 ft 438 kts 24°
2026-05-07 13:59 47.79817 8.68617 32033 ft 438 kts 24°
2026-05-07 13:59 47.85262 8.72540 32032 ft 438 kts 24°
2026-05-07 14:00 47.90435 8.76270 32030 ft 437 kts 24°
2026-05-07 14:00 47.95902 8.80227 32029 ft 437 kts 24°
2026-05-07 14:01 48.01377 8.84190 32028 ft 437 kts 24°
2026-05-07 14:01 48.06456 8.87875 32025 ft 437 kts 24°
2026-05-07 14:02 48.11572 8.91602 32023 ft 437 kts 24°
2026-05-07 14:02 48.16387 8.94719 32021 ft 434 kts 14°
2026-05-07 14:03 48.22246 8.96173 32019 ft 430 kts
2026-05-07 14:03 48.28062 8.97039 32013 ft 430 kts
2026-05-07 14:04 48.34016 8.97953 32008 ft 430 kts
2026-05-07 14:04 48.39205 8.98752 32008 ft 430 kts
2026-05-07 14:05 48.43549 8.99448 32001 ft 429 kts
2026-05-07 14:05 48.49502 9.00351 31876 ft 434 kts
2026-05-07 14:05 48.52519 9.00794 30966 ft 439 kts
2026-05-07 14:06 48.54276 9.01054 30601 ft 436 kts
2026-05-07 14:06 48.57350 9.01512 29966 ft 432 kts
2026-05-07 14:06 48.60077 9.01977 29368 ft 428 kts
2026-05-07 14:06 48.62290 9.02370 28930 ft 423 kts
2026-05-07 14:07 48.65197 9.02901 28334 ft 419 kts
2026-05-07 14:07 48.68067 9.03510 27757 ft 414 kts
2026-05-07 14:07 48.70905 9.04177 27175 ft 410 kts
2026-05-07 14:07 48.73082 9.04717 26758 ft 407 kts
2026-05-07 14:08 48.75715 9.05382 26210 ft 404 kts
2026-05-07 14:08 48.78411 9.06063 25675 ft 401 kts
2026-05-07 14:08 48.81153 9.06743 25143 ft 398 kts
2026-05-07 14:08 48.83754 9.07374 24646 ft 395 kts
2026-05-07 14:09 48.86462 9.08020 24132 ft 392 kts
2026-05-07 14:09 48.89148 9.08634 23641 ft 389 kts
2026-05-07 14:09 48.91215 9.09013 23231 ft 385 kts
2026-05-07 14:09 48.93810 9.09394 22754 ft 380 kts
2026-05-07 14:10 48.96068 9.09679 22350 ft 376 kts
2026-05-07 14:10 48.98616 9.09984 21898 ft 372 kts
2026-05-07 14:10 49.00671 9.10236 21513 ft 370 kts
2026-05-07 14:10 49.03011 9.10538 21081 ft 367 kts
2026-05-07 14:11 49.05550 9.10885 20594 ft 365 kts
2026-05-07 14:11 49.08069 9.11243 20102 ft 363 kts
2026-05-07 14:11 49.10571 9.11604 19617 ft 361 kts
2026-05-07 14:11 49.13068 9.11966 19118 ft 360 kts
2026-05-07 14:12 49.15433 9.12307 18646 ft 359 kts
2026-05-07 14:12 49.17917 9.12666 18121 ft 359 kts
2026-05-07 14:12 49.20395 9.13022 17599 ft 357 kts
2026-05-07 14:12 49.22841 9.13373 17113 ft 355 kts
2026-05-07 14:13 49.25277 9.13723 16631 ft 352 kts
2026-05-07 14:13 49.27711 9.14074 16150 ft 350 kts
2026-05-07 14:13 49.30108 9.14763 15666 ft 350 kts 11°
2026-05-07 14:13 49.32443 9.15584 15193 ft 349 kts 11°
2026-05-07 14:14 49.34792 9.16420 14718 ft 347 kts 11°
2026-05-07 14:14 49.37101 9.17242 14253 ft 346 kts 11°
2026-05-07 14:14 49.39442 9.18075 13774 ft 344 kts 11°
2026-05-07 14:14 49.41770 9.18905 13266 ft 342 kts 11°
2026-05-07 14:15 49.43318 9.19458 12956 ft 340 kts 11°
2026-05-07 14:15 49.43322 9.19460 12953 ft 340 kts 11°